Flag for Canada Weather past 2 weeks in Québec, Quebec, Canada

Now
73 °F

Broken clouds.


Feels Like: 76 °F
Forecast: N/A
Wind: 16 mph from Southwest

Location: Quebec Weather Station

Current Time: Aug 2, 2015 at 5:04:22 PM

Latest Report: Aug 2, 2015 at 4:00 PM


Visibility: 30 mi

Pressure: 29.75 "Hg

Humidity: 61%

Dew point: 59 °F

Location of QuébecLocation

Historic Weather in Québec — Graph

°F

Québec temperature yesterday

Maximum temperature yesterday: 72 °F (at 1:00 PM)
Minimum temperature yesterday: 57 °F (at 11:00 PM)
Average temperature yesterday: 64 °F

Past Weeks' High & Low Weather Summary

 TemperatureHumidityPressure
High86 °F (Jul 29, 4:00 PM)100% (Jul 18, 5:00 PM)30.06 "Hg (Jul 18, 5:00 PM)
Low55 °F (Jul 22, 5:00 AM)31% (Jul 28, 2:00 PM)29.51 "Hg (Jul 21, 5:00 PM)
Average66 °F83%29.79 "Hg
* Reported Jul 18 4:00 PM — Aug 2 4:00 PM, Québec, Weather by CustomWeather, © 2015

Note: Actual official high and low records may vary slightly from our data, if they occured in-between our weather recording intervals... More about our weather records

Advertising

Québec weather history for previous 24 hours

 ConditionsComfort  
Time TempWeatherWind HumidityBarometerVisibility
4:00 PM
Sun, Aug 2
73 °FBroken clouds.16 mph61%29.75 "Hg30 mi
3:00 PM75 °FBroken clouds.15 mph65%29.75 "Hg30 mi
2:00 PM73 °FBroken clouds.12 mph69%29.76 "Hg30 mi
1:00 PM70 °FBroken clouds.8 mph78%29.78 "Hg30 mi
12:00 PM66 °FPartly sunny.7 mph83%29.80 "Hg30 mi
11:00 AM64 °FMore clouds than sun.5 mph83%29.81 "Hg15 mi
10:00 AM63 °FMore clouds than sun.8 mph88%29.81 "Hg15 mi
9:00 AM61 °FPartly sunny.7 mph94%29.80 "Hg10 mi
8:00 AM59 °FLow clouds.7 mph94%29.79 "Hg10 mi
7:00 AM59 °FPartly sunny.8 mph94%29.78 "Hg10 mi
6:00 AM59 °FLow clouds.9 mph94%29.77 "Hg10 mi
5:00 AM59 °FFog.7 mph100%29.76 "Hg6 mi
4:00 AM59 °FFog.8 mph94%29.75 "Hg6 mi
3:00 AM59 °FFog.8 mph94%29.75 "Hg6 mi
2:00 AM59 °FPassing clouds.9 mph94%29.74 "Hg8 mi
1:00 AM57 °FPassing clouds.3 mph94%29.75 "Hg15 mi
12:00 AM57 °FPassing clouds.2 mph94%29.75 "Hg15 mi
11:00 PM
Sat, Aug 1
57 °FPassing clouds.7 mph94%29.74 "Hg15 mi
10:00 PM59 °FPassing clouds.8 mph94%29.72 "Hg15 mi
9:00 PM61 °FBroken clouds.9 mph88%29.72 "Hg20 mi
8:00 PM63 °FBroken clouds.8 mph83%29.71 "Hg25 mi
7:00 PM64 °FBroken clouds.8 mph78%29.69 "Hg15 mi
6:00 PM72 °FBroken clouds.13 mph65%29.67 "Hg25 mi
5:00 PM72 °FBroken clouds.16 mph65%29.65 "Hg30 mi
Weather by CustomWeather, © 2015

See weather overviewHow to use our weather pages